Wind_Speed
11 10 10 9 9 9 9 10 10 11 12 12 12 12 12 12 13 15 16 17 18 19 20 21 21 22 23 24 24 24 24 24 24 24 24 24 24 23 23 24 24 25 25
11 10 10 9 9 9 10 11 11 11 12 12 13 13 14 14 15 15 17 18 19 19 20 21 22 23 23 24 24 24 24 24 24 24 25 25 24 24 24 25 26 26 27
12 11 11 10 10 10 10 11 11 12 12 13 14 14 15 15 16 17 17 19 20 21 21 22 23 24 24 24 25 25 25 25 24 24 24 25 25 24 25 25 26 27 28
12 11 11 11 11 11 12 12 12 13 14 14 15 15 15 16 17 17 18 19 20 21 22 22 23 24 24 24 24 25 25 25 24 24 24 26 26 26 27 27 28 29 30
13 13 12 12 13 13 13 13 13 14 14 15 15 16 16 17 17 18 19 19 20 21 21 21 22 23 24 24 24 24 24 25 25 25 26 27 27 28 28 29 30 31 31
14 14 13 13 14 14 13 13 13 14 14 15 15 16 17 17 18 18 19 20 20 20 21 22 22 23 23 23 23 24 25 26 26 26 27 28 28 29 30 30 31 31 31
15 15 15 15 15 14 14 14 14 15 15 16 16 17 18 18 19 19 19 20 20 21 22 22 22 23 23 23 23 24 25 26 26 26 27 28 29 29 30 30 31 32 32
17 17 16 16 16 16 16 16 16 16 17 17 17 18 19 19 20 21 21 22 22 22 22 23 23 23 23 23 24 25 26 26 26 26 27 27 28 29 31 32 32 33 33
18 18 18 18 18 17 17 17 18 18 19 19 19 20 21 21 22 22 23 23 23 23 23 23 23 24 24 24 24 24 25 25 26 27 28 29 30 31 32 32 33 33 33
19 19 19 19 19 19 19 19 19 20 20 20 21 22 23 23 24 24 24 24 24 24 24 24 24 24 24 25 25 25 25 26 26 27 28 29 29 30 31 33 34 34 34
20 20 20 20 20 21 21 21 22 22 22 22 22 23 24 24 24 25 25 26 25 25 25 25 25 25 26 26 27 27 27 28 28 29 29 30 30 31 33 34 34 34 34
22 22 23 23 23 23 24 24 24 24 24 24 24 25 25 26 26 26 26 26 26 26 26 26 26 27 28 28 28 28 28 29 30 30 31 31 32 33 33 33 34 34 34
25 25 25 25 25 25 26 26 26 26 26 26 26 26 26 27 27 27 27 27 27 27 27 27 27 28 29 29 29 30 30 31 32 32 32 32 33 34 34 34 34 34 34
27 27 27 27 27 28 28 27 28 28 28 28 28 28 28 28 28 28 28 28 28 28 28 29 29 30 30 30 31 31 32 32 33 33 33 32 33 33 33 34 34 35 36
30 29 29 29 30 30 30 29 30 30 30 30 30 30 30 29 30 30 30 30 29 30 30 30 31 31 31 32 33 33 33 33 34 33 33 32 32 33 33 34 34 35 36
31 31 31 31 31 32 32 32 32 32 32 32 32 32 31 31 31 31 31 31 31 31 32 32 32 33 33 33 34 34 33 33 34 33 33 33 33 33 34 34 35 35 35
33 33 33 33 32 33 33 33 34 34 33 33 33 33 33 33 33 33 33 33 32 32 33 33 33 34 34 34 34 34 34 33 33 33 33 33 34 34 34 34 34 34 34
35 35 34 34 34 34 34 34 35 34 33 34 34 35 34 35 34 34 34 34 34 34 34 34 34 34 35 35 34 34 33 32 33 33 34 34 34 34 34 33 33 33 32
36 35 34 34 35 35 35 35 35 35 34 34 35 35 35 35 35 35 34 34 34 34 34 35 35 35 35 34 33 33 33 33 33 33 33 33 33 32 32 32 32 31 30
36 36 35 35 35 35 35 35 34 35 34 34 35 35 35 35 35 35 35 34 34 35 35 35 35 34 34 33 32 32 32 32 32 32 31 31 31 31 30 30 30 30 29
36 37 37 37 36 36 36 35 35 35 35 35 35 35 35 35 35 34 34 34 34 34 34 34 33 33 32 31 31 31 31 31 31 31 31 30 30 30 29 29 29 29 28
37 37 36 36 36 35 35 35 35 35 35 35 34 34 34 34 33 32 33 34 34 34 33 32 31 31 30 30 30 30 30 31 30 30 30 29 29 29 29 29 28 28 27
36 36 35 35 35 34 35 35 35 35 34 34 33 33 33 33 33 33 33 32 32 31 30 30 30 30 30 30 29 29 30 30 29 29 29 29 28 28 28 28 27 26 26
34 34 34 34 35 35 34 34 33 32 32 32 32 32 32 31 31 31 31 30 30 30 29 29 29 29 29 29 29 29 29 29 29 29 29 28 28 28 27 27 26 26 26
33 33 34 34 33 33 33 32 31 31 31 31 31 31 31 30 30 30 30 30 30 30 29 29 28 28 29 29 29 29 29 30 30 29 29 28 28 28 27 26 26 26 27
33 33 33 33 32 32 31 31 31 31 30 31 30 29 29 29 29 29 30 30 29 29 29 29 29 29 29 29 29 29 29 29 28 28 28 28 27 27 26 26 26 26 26
Wind_Direction
318 312 306 301 295 294 295 294 293 292 290 288 284 283 283 282 282 281 279 278 278 278 279 282 286 287 286 284 283 283 283 283 283 284 286 288 288 287 286 286 287 286 286
319 316 315 311 303 297 295 294 291 294 295 288 285 285 286 286 286 288 286 282 281 281 282 284 286 288 288 287 285 283 283 283 282 283 284 286 286 285 285 286 286 284 285
318 318 317 316 312 307 302 299 295 294 296 294 291 290 288 287 288 290 290 286 285 285 286 286 287 289 288 287 287 286 285 283 283 283 284 285 286 285 286 288 289 286 286
316 313 313 315 313 309 304 301 298 295 293 292 291 291 290 289 290 291 291 290 288 287 289 290 290 292 291 289 287 287 287 286 285 285 285 285 286 287 288 289 290 288 287
312 309 308 309 311 309 307 303 301 300 295 293 292 292 291 291 293 293 293 292 292 292 293 295 296 295 295 292 288 287 288 287 286 285 287 287 287 289 289 290 291 290 289
309 308 305 307 311 311 309 306 304 302 301 299 298 297 297 296 296 296 295 294 294 294 295 295 295 295 295 294 290 289 289 289 287 286 287 287 289 289 289 291 293 293 292
307 308 305 306 309 310 311 310 308 306 302 299 298 298 299 299 298 297 297 296 296 297 296 296 295 295 295 294 291 290 291 291 290 289 289 288 288 290 291 293 295 296 295
304 305 304 303 304 307 310 308 305 305 305 304 302 301 301 302 302 299 297 296 296 297 296 295 295 296 297 296 293 292 292 292 290 289 290 289 290 290 292 294 296 297 295
302 303 302 302 304 306 307 307 304 303 303 301 300 301 301 301 300 298 296 296 296 297 297 295 294 295 296 297 296 296 295 293 292 292 291 292 292 292 293 295 296 298 296
298 300 300 301 303 306 307 307 306 304 303 302 302 301 301 300 300 298 298 298 298 298 296 295 294 294 295 296 295 296 296 295 295 295 294 293 294 294 294 295 296 296 296
295 298 300 300 301 303 304 306 307 306 304 304 304 303 303 302 301 300 300 300 298 298 297 295 295 296 296 296 294 294 295 295 295 296 296 295 295 296 297 296 296 296 296
292 294 296 297 298 299 300 301 303 303 302 302 302 302 302 301 300 300 300 300 299 298 296 295 294 294 294 295 295 294 295 295 296 297 297 297 297 297 297 296 296 296 296
289 291 293 294 295 295 297 298 298 300 300 300 300 301 301 300 300 300 300 300 300 298 297 295 295 294 295 295 294 294 295 295 295 296 296 296 297 297 298 297 297 297 298
286 289 290 290 291 294 295 295 295 296 297 298 298 299 299 299 298 299 299 299 298 297 297 296 296 296 296 295 294 294 295 296 296 296 296 297 297 298 298 298 298 298 299
284 287 289 289 290 291 292 293 294 294 295 295 295 296 297 297 297 298 299 298 297 296 296 295 295 296 296 296 296 296 295 296 297 298 298 299 299 298 298 298 298 298 299
283 287 290 290 289 289 290 291 291 292 292 293 293 294 295 295 296 297 297 297 296 296 296 296 296 296 296 296 296 296 296 296 297 298 298 300 300 301 300 299 299 299 300
283 285 288 289 290 290 291 291 290 290 290 290 290 291 292 293 294 295 296 296 296 296 296 296 296 296 296 296 296 295 295 296 296 297 298 299 300 300 300 299 299 299 298
283 285 286 289 289 290 290 289 289 289 289 289 290 290 291 291 291 292 293 294 294 295 295 296 296 295 295 295 296 296 295 295 296 296 297 298 300 300 300 300 299 300 299
281 283 285 287 289 290 290 289 288 289 290 290 290 290 290 290 289 290 292 293 294 294 295 296 296 295 294 294 295 295 295 296 295 295 297 298 299 300 300 300 301 301 300
280 283 285 287 289 289 289 289 289 290 290 290 291 291 291 290 290 289 290 291 293 293 293 295 295 295 294 294 295 295 295 295 295 296 297 298 299 299 300 300 300 299 299
281 283 285 286 287 288 289 289 289 290 291 292 292 291 291 291 291 290 290 291 292 293 293 294 295 296 296 295 294 293 293 293 294 295 297 297 298 299 299 300 300 300 299
281 283 284 285 286 288 289 289 288 289 290 292 291 291 291 291 290 290 292 292 293 293 293 294 295 296 296 294 292 292 294 295 295 296 297 298 298 298 298 299 299 299 300
281 284 285 285 287 287 288 288 289 289 290 291 291 290 290 290 291 292 293 294 294 293 294 295 296 296 295 294 293 293 295 295 295 295 296 295 295 297 298 299 299 300 301
281 283 285 287 286 287 288 289 289 289 289 290 291 291 291 292 293 294 294 295 295 295 295 295 295 295 295 294 294 294 295 294 294 295 295 294 295 296 297 297 298 299 300
280 282 285 286 287 287 288 288 288 289 290 291 292 292 293 292 292 294 295 295 295 294 293 293 294 295 296 295 294 294 295 295 295 294 294 294 295 296 296 296 297 298 299
281 282 284 285 285 285 286 287 289 290 290 291 291 291 292 293 293 294 294 295 294 294 294 294 294 295 296 296 295 295 294 294 293 294 295 295 295 296 297 298 298 299 299
Height
5886 5885 5885 5884 5883 5883 5883 5883 5883 5883 5882 5882 5882 5882 5882 5882 5881 5881 5881 5880 5880 5880 5880 5879 5879 5877 5876 5875 5874 5874 5873 5872 5872 5871 5870 5869 5868 5867 5865 5864 5863 5862 5861
5885 5885 5884 5883 5882 5882 5881 5881 5880 5880 5880 5879 5879 5879 5879 5878 5878 5877 5877 5876 5876 5875 5875 5874 5873 5872 5871 5870 5868 5868 5867 5866 5865 5865 5863 5862 5862 5860 5859 5858 5857 5855 5854
5884 5883 5883 5882 5881 5880 5879 5878 5878 5877 5877 5876 5876 5876 5875 5875 5875 5874 5873 5872 5871 5871 5870 5869 5868 5866 5865 5864 5863 5862 5861 5860 5859 5858 5857 5856 5855 5854 5853 5851 5850 5848 5846
5883 5882 5881 5880 5879 5878 5877 5876 5875 5875 5874 5874 5873 5872 5872 5871 5871 5870 5869 5868 5867 5866 5864 5863 5862 5860 5859 5858 5857 5855 5854 5853 5852 5851 5851 5849 5848 5847 5845 5844 5842 5840 5838
5881 5880 5879 5878 5877 5875 5874 5873 5872 5872 5871 5871 5870 5869 5868 5867 5866 5865 5864 5863 5862 5861 5859 5858 5856 5855 5853 5852 5850 5849 5848 5847 5845 5845 5844 5842 5841 5839 5838 5836 5834 5832 5830
5879 5878 5877 5876 5875 5873 5871 5870 5870 5869 5868 5867 5866 5865 5864 5863 5862 5861 5860 5858 5857 5856 5854 5853 5851 5850 5848 5846 5845 5843 5842 5840 5839 5838 5837 5835 5834 5832 5830 5828 5826 5824 5822
5876 5875 5874 5873 5872 5870 5869 5868 5867 5866 5865 5864 5863 5862 5861 5859 5858 5856 5855 5854 5852 5851 5849 5848 5846 5844 5842 5840 5839 5837 5835 5834 5833 5831 5830 5828 5826 5825 5823 5820 5818 5815 5813
5874 5873 5872 5871 5870 5868 5867 5865 5864 5863 5862 5860 5859 5858 5857 5855 5853 5852 5850 5849 5847 5846 5844 5842 5841 5839 5837 5835 5833 5831 5829 5827 5826 5824 5823 5821 5819 5817 5815 5813 5810 5807 5804
5871 5870 5869 5868 5866 5865 5864 5862 5861 5860 5858 5857 5855 5854 5852 5851 5849 5847 5845 5844 5842 5840 5839 5837 5835 5833 5831 5829 5827 5825 5823 5821 5819 5818 5816 5814 5812 5809 5807 5804 5802 5799 5795
5868 5867 5865 5864 5863 5862 5860 5859 5857 5856 5854 5852 5851 5849 5848 5846 5844 5842 5840 5838 5836 5834 5832 5831 5829 5827 5825 5823 5821 5819 5817 5815 5813 5811 5809 5806 5804 5801 5799 5796 5793 5790 5787
5864 5863 5862 5860 5859 5858 5857 5855 5853 5852 5850 5848 5846 5844 5842 5840 5838 5836 5834 5832 5830 5828 5826 5824 5822 5821 5819 5817 5815 5813 5811 5808 5806 5804 5801 5799 5796 5793 5790 5787 5784 5781 5778
5859 5858 5857 5856 5855 5853 5852 5850 5849 5847 5845 5843 5841 5839 5837 5835 5833 5830 5828 5826 5824 5822 5820 5818 5816 5814 5812 5810 5808 5805 5803 5801 5799 5796 5793 5790 5787 5784 5781 5778 5775 5771 5768
5854 5853 5852 5851 5849 5848 5846 5845 5843 5841 5839 5837 5835 5833 5831 5829 5827 5824 5822 5820 5817 5815 5813 5811 5809 5807 5805 5803 5800 5798 5796 5793 5790 5788 5784 5782 5778 5775 5772 5768 5765 5762 5759
5848 5847 5846 5845 5843 5842 5840 5839 5837 5835 5833 5831 5829 5827 5825 5822 5820 5818 5815 5813 5810 5808 5806 5804 5802 5799 5797 5795 5792 5790 5787 5784 5781 5779 5776 5773 5769 5766 5763 5760 5756 5753 5750
5841 5840 5839 5838 5836 5835 5833 5831 5830 5828 5826 5824 5822 5820 5817 5815 5813 5810 5808 5806 5803 5801 5798 5796 5794 5791 5789 5786 5784 5781 5778 5776 5773 5769 5766 5763 5760 5757 5754 5750 5747 5744 5740
5834 5833 5832 5830 5829 5827 5825 5823 5821 5820 5818 5816 5814 5812 5809 5807 5805 5802 5800 5797 5795 5793 5790 5788 5785 5783 5780 5778 5775 5772 5769 5766 5763 5760 5757 5754 5751 5748 5745 5741 5738 5734 5730
5826 5825 5823 5822 5820 5819 5817 5815 5813 5811 5809 5807 5805 5803 5801 5799 5796 5794 5791 5789 5786 5784 5782 5779 5777 5774 5771 5768 5765 5763 5760 5757 5754 5751 5748 5745 5742 5739 5735 5732 5728 5725 5721
5817 5816 5815 5813 5811 5810 5808 5806 5804 5802 5800 5798 5796 5794 5792 5789 5787 5785 5782 5780 5778 5775 5773 5770 5767 5765 5762 5759 5756 5753 5750 5748 5745 5742 5739 5736 5733 5729 5726 5723 5719 5716 5712
5809 5808 5806 5805 5803 5801 5799 5797 5795 5793 5791 5789 5787 5785 5782 5780 5778 5775 5773 5771 5768 5766 5763 5761 5758 5755 5752 5750 5747 5744 5741 5739 5736 5733 5730 5727 5724 5721 5718 5714 5711 5708 5704
5800 5798 5797 5795 5794 5792 5790 5788 5786 5784 5782 5780 5777 5775 5773 5770 5768 5766 5763 5761 5759 5756 5754 5751 5748 5745 5743 5740 5738 5735 5733 5730 5727 5724 5721 5718 5715 5712 5709 5706 5703 5700 5697
5790 5789 5787 5786 5784 5782 5780 5778 5776 5774 5772 5770 5768 5765 5763 5761 5758 5756 5754 5751 5749 5747 5744 5742 5739 5736 5734 5731 5729 5726 5724 5721 5718 5716 5713 5710 5707 5704 5701 5698 5695 5692 5689
5781 5779 5778 5776 5775 5773 5771 5769 5766 5765 5763 5760 5758 5755 5753 5751 5749 5747 5744 5742 5739 5737 5735 5732 5730 5727 5725 5722 5720 5717 5715 5713 5710 5707 5705 5702 5699 5696 5693 5691 5688 5685 5682
5771 5770 5768 5767 5765 5763 5762 5760 5758 5755 5753 5751 5748 5746 5744 5742 5740 5737 5735 5732 5730 5728 5726 5723 5721 5719 5716 5714 5711 5709 5707 5704 5701 5699 5696 5694 5691 5688 5686 5683 5680 5677 5675
5762 5761 5759 5758 5756 5754 5752 5750 5748 5746 5744 5742 5740 5737 5735 5733 5731 5728 5726 5724 5722 5719 5717 5715 5713 5710 5708 5705 5703 5701 5698 5695 5693 5690 5688 5685 5683 5680 5678 5675 5673 5670 5668
5752 5751 5750 5748 5747 5745 5743 5741 5739 5737 5735 5733 5731 5729 5727 5724 5722 5720 5718 5716 5713 5711 5709 5706 5704 5702 5699 5697 5695 5692 5690 5687 5685 5682 5680 5677 5675 5672 5670 5667 5665 5663 5660
5743 5742 5740 5739 5737 5736 5734 5732 5730 5728 5727 5725 5722 5720 5718 5716 5714 5712 5709 5707 5705 5702 5700 5698 5695 5693 5691 5688 5686 5684 5681 5679 5676 5674 5671 5669 5667 5664 5662 5660 5657 5655 5653